Location: Ocean City
(38.3360°N, 75.0850°W)
Time: 14:31:53
(UTC-05:00)

deb Explorer IX - All Passes

Search period start: 11 November 2019 00:00
Search period end: 21 November 2019 00:00
Orbit: 546 x 1105 km, 38.8° (Epoch: 09 November)

Date Brightness Start Highest point End Pass type
(mag) Time Alt. Az. Time Alt. Az. Time Alt. Az.
11 Nov - 03:26:10 10° SW 03:30:57 33° SSE 03:35:08 10° E visible
11 Nov - 05:12:47 10° WSW 05:17:40 81° SSE 05:21:58 10° E visible
11 Nov - 07:00:07 10° W 07:04:33 87° N 07:08:40 10° E daylight
11 Nov - 08:47:16 10° W 08:51:12 42° SSW 08:55:04 10° SE daylight
12 Nov - 03:04:02 10° SW 03:09:02 35° SSE 03:13:24 10° E visible
12 Nov - 04:50:45 10° WSW 04:55:49 82° SSE 05:00:12 10° E visible
12 Nov - 06:38:10 10° W 06:42:43 88° N 06:46:53 10° E daylight
12 Nov - 08:25:23 10° W 08:29:21 41° SSW 08:33:12 10° SE daylight
13 Nov - 00:59:07 10° SSE 01:00:35 11° SE 01:02:00 10° SE night (unlit)
13 Nov - 02:41:54 10° SW 02:47:07 37° SSE 02:51:39 10° E visible
13 Nov - 04:28:43 10° WSW 04:33:56 83° S 04:38:26 10° E visible
13 Nov - 06:16:12 10° W 06:20:53 88° N 06:25:06 10° E daylight
13 Nov - 08:03:30 10° W 08:07:32 40° SSW 08:11:22 10° SE daylight
14 Nov - 00:36:27 10° SSE 00:38:36 12° SE 00:40:41 10° ESE night (unlit)
14 Nov - 02:19:44 10° SW 02:25:11 39° SSE 02:29:53 10° E visible
14 Nov - 04:06:39 10° WSW 04:12:04 84° SSE 04:16:40 10° E visible
14 Nov - 05:54:12 10° W 05:59:02 89° N 06:03:19 10° E visible
14 Nov - 07:41:34 10° W 07:45:41 40° SSW 07:49:32 10° SE daylight
15 Nov - 00:13:56 10° SSE 00:16:37 13° SE 00:19:11 10° ESE night (unlit)
15 Nov - 01:57:34 10° SW 02:03:15 41° SSE 02:08:07 10° E night (unlit)
15 Nov - 03:44:34 10° WSW 03:50:10 85° SSE 03:54:54 10° E visible
15 Nov - 05:32:11 10° W 05:37:11 89° N 05:41:32 10° E visible
15 Nov - 07:19:38 10° W 07:23:50 39° SSW 07:27:42 10° SE daylight
15 Nov - 23:51:29 10° S 23:54:37 14° SE 23:57:35 10° ESE night (unlit)
16 Nov - 01:35:24 10° SW 01:41:16 42° SSE 01:46:20 10° E night (unlit)
16 Nov - 03:22:28 10° WSW 03:28:14 86° S 03:33:07 10° E visible
16 Nov - 05:10:08 10° W 05:15:19 90° S 05:19:46 10° E visible
16 Nov - 06:57:40 10° W 07:01:59 39° SSW 07:05:53 10° SE daylight
16 Nov - 23:29:04 10° S 23:32:36 15° SE 23:35:55 10° ESE night (unlit)
17 Nov - 01:13:13 10° SW 01:19:17 44° SSE 01:24:32 10° E night (unlit)
17 Nov - 03:00:21 10° WSW 03:06:19 87° S 03:11:20 10° E visible
17 Nov - 04:48:04 10° W 04:53:26 89° S 04:58:00 10° E visible
17 Nov - 06:35:40 10° W 06:40:06 39° SSW 06:44:05 10° SE daylight
17 Nov - 23:06:43 10° S 23:10:34 16° SE 23:14:12 10° ESE night (unlit)
18 Nov - 00:51:01 10° SW 00:57:17 46° SSE 01:02:42 10° E night (unlit)
18 Nov - 02:38:13 10° WSW 02:44:21 87° S 02:49:32 10° E visible
18 Nov - 04:26:00 10° W 04:31:31 89° S 04:36:12 10° E visible
18 Nov - 06:13:39 10° W 06:18:14 39° SSW 06:22:16 10° SE visible
18 Nov - 22:44:22 10° S 22:48:32 17° SE 22:52:26 10° ESE night (unlit)
19 Nov - 00:28:50 10° SW 00:35:16 47° SSE 00:40:53 10° E night (unlit)
19 Nov - 02:16:04 10° W 02:22:24 88° S 02:27:44 10° E visible
19 Nov - 04:03:53 10° W 04:09:37 88° S 04:14:26 10° E visible
19 Nov - 05:51:37 10° W 05:56:20 39° SSW 06:00:28 10° SE visible
19 Nov - 22:22:04 10° S 22:26:28 18° SE 22:30:38 10° ESE night (unlit)
20 Nov - 00:06:38 10° SW 00:13:14 49° SSE 00:19:01 10° E night (unlit)
20 Nov - 01:53:55 10° W 02:00:25 88° S 02:05:55 10° E night (unlit)
20 Nov - 03:41:47 10° W 03:47:41 88° S 03:52:38 10° E visible
20 Nov - 05:29:33 10° W 05:34:25 39° SSW 05:38:40 10° SE visible
20 Nov - 21:59:46 10° S 22:04:24 18° SE 22:08:48 10° ESE night (unlit)
20 Nov - 23:44:26 10° SW 23:51:10 50° SSE 23:57:09 10° E night (unlit)
